TimeCDT,TemperatureF,Dew PointF,Humidity,Sea Level PressureIn,VisibilityMPH,Wind Direction,Wind SpeedMPH,Gust SpeedMPH,PrecipitationIn,Events,Conditions,WindDirDegrees,DateUTC
12:14 AM,66.2,62.6,88,29.69,10.0,East,9.2,-,N/A,,Clear,90,2013-05-19 05:14:00
12:34 AM,66.2,60.8,83,29.69,7.0,East,10.4,-,N/A,,Clear,100,2013-05-19 05:34:00
12:54 AM,66.2,60.8,83,29.69,10.0,East,8.1,-,N/A,,Clear,100,2013-05-19 05:54:00
1:14 AM,66.2,60.8,83,29.69,10.0,ESE,9.2,-,N/A,,Scattered Clouds,110,2013-05-19 06:14:00
1:34 AM,66.2,60.8,83,29.69,10.0,ESE,10.4,-,N/A,,Scattered Clouds,110,2013-05-19 06:34:00
1:54 AM,68.0,60.8,78,29.69,10.0,ESE,12.7,-,N/A,,Mostly Cloudy,110,2013-05-19 06:54:00
2:14 AM,68.0,60.8,78,29.69,10.0,ESE,15.0,-,N/A,,Mostly Cloudy,110,2013-05-19 07:14:00
2:34 AM,68.0,60.8,78,29.68,10.0,ESE,15.0,-,N/A,,Mostly Cloudy,110,2013-05-19 07:34:00
2:55 AM,69.8,60.8,73,29.67,10.0,ESE,15.0,-,N/A,,Mostly Cloudy,110,2013-05-19 07:55:00
3:14 AM,69.8,62.6,78,29.67,10.0,ESE,15.0,-,N/A,,Mostly Cloudy,120,2013-05-19 08:14:00
3:34 AM,69.8,62.6,78,29.66,10.0,SE,15.0,-,N/A,Rain,Light Rain,130,2013-05-19 08:34:00
3:54 AM,64.4,60.8,88,29.71,2.0,SSW,19.6,28.8,0.07,Rain-Thunderstorm,Heavy Thunderstorms and Rain,200,2013-05-19 08:54:00
4:14 AM,62.6,60.8,94,29.69,2.5,SSW,9.2,-,0.23,Rain-Thunderstorm,Heavy Thunderstorms and Rain,200,2013-05-19 09:14:00
4:34 AM,62.6,60.8,94,29.70,10.0,SE,3.5,-,0.27,Rain,Rain,140,2013-05-19 09:34:00
4:54 AM,62.6,60.8,94,29.68,10.0,East,8.1,-,0.34,Rain-Thunderstorm,Rain,100,2013-05-19 09:54:00
5:15 AM,62.6,60.8,94,29.64,10.0,ENE,8.1,-,0.06,Rain,Rain,70,2013-05-19 10:15:00
5:34 AM,62.6,60.8,94,29.61,10.0,NE,11.5,-,0.08,Rain,Light Rain,50,2013-05-19 10:34:00
5:55 AM,60.8,60.8,100,29.61,10.0,ENE,19.6,-,0.08,,Scattered Clouds,70,2013-05-19 10:55:00
6:15 AM,60.8,60.8,100,29.61,10.0,East,19.6,-,N/A,Thunderstorm,Mostly Cloudy,90,2013-05-19 11:15:00
6:35 AM,60.8,60.8,100,29.60,10.0,East,17.3,-,N/A,,Scattered Clouds,80,2013-05-19 11:35:00
7:14 AM,62.6,60.8,94,29.60,10.0,East,10.4,-,N/A,,Mostly Cloudy,100,2013-05-19 12:14:00
7:34 AM,62.6,60.8,94,29.60,10.0,East,12.7,-,N/A,,Mostly Cloudy,100,2013-05-19 12:34:00
7:54 AM,62.6,60.8,94,29.61,10.0,ESE,11.5,-,N/A,,Mostly Cloudy,110,2013-05-19 12:54:00
8:15 AM,62.6,60.8,94,29.60,10.0,East,11.5,-,N/A,,Scattered Clouds,100,2013-05-19 13:15:00
8:35 AM,64.4,62.6,94,29.61,10.0,ESE,18.4,-,N/A,,Scattered Clouds,120,2013-05-19 13:35:00
8:55 AM,64.4,62.6,94,29.62,10.0,SE,20.7,-,N/A,,Overcast,130,2013-05-19 13:55:00
9:14 AM,64.4,62.6,94,29.61,7.0,ESE,13.8,-,N/A,,Overcast,120,2013-05-19 14:14:00
9:35 AM,66.2,64.4,94,29.61,7.0,SE,19.6,-,N/A,,Mostly Cloudy,130,2013-05-19 14:35:00
9:55 AM,69.8,66.2,88,29.61,7.0,SE,23.0,26.5,N/A,,Mostly Cloudy,130,2013-05-19 14:55:00
10:14 AM,69.8,64.4,83,29.61,7.0,SSE,21.9,27.6,N/A,,Mostly Cloudy,150,2013-05-19 15:14:00
10:34 AM,69.8,64.4,83,29.60,10.0,SE,23.0,31.1,N/A,,Mostly Cloudy,140,2013-05-19 15:34:00
10:55 AM,69.8,64.4,83,29.60,10.0,SE,20.7,27.6,N/A,,Mostly Cloudy,140,2013-05-19 15:55:00
11:15 AM,69.8,64.4,83,29.60,10.0,SSE,19.6,26.5,N/A,,Mostly Cloudy,150,2013-05-19 16:15:00
11:34 AM,71.6,64.4,78,29.59,10.0,SSE,20.7,26.5,N/A,,Scattered Clouds,150,2013-05-19 16:34:00
11:54 AM,71.6,62.6,73,29.59,10.0,SSE,19.6,25.3,N/A,,Scattered Clouds,150,2013-05-19 16:54:00
12:14 PM,73.4,62.6,69,29.59,10.0,SSE,15.0,25.3,N/A,,Scattered Clouds,160,2013-05-19 17:14:00
12:35 PM,73.4,62.6,69,29.59,10.0,South,20.7,29.9,N/A,,Clear,170,2013-05-19 17:35:00
12:55 PM,73.4,62.6,69,29.59,10.0,SSE,16.1,27.6,N/A,,Scattered Clouds,160,2013-05-19 17:55:00
1:14 PM,73.4,62.6,69,29.59,10.0,South,15.0,27.6,N/A,,Scattered Clouds,170,2013-05-19 18:14:00
1:34 PM,73.4,62.6,69,29.59,10.0,South,20.7,26.5,N/A,,Scattered Clouds,170,2013-05-19 18:34:00
2:15 PM,73.4,62.6,69,29.59,10.0,South,15.0,26.5,N/A,,Scattered Clouds,180,2013-05-19 19:15:00
2:34 PM,73.4,60.8,65,29.59,10.0,South,16.1,24.2,N/A,,Scattered Clouds,190,2013-05-19 19:34:00
2:54 PM,75.2,60.8,61,29.59,10.0,South,16.1,25.3,N/A,,Scattered Clouds,190,2013-05-19 19:54:00
3:14 PM,75.2,60.8,61,29.59,10.0,SSW,16.1,20.7,N/A,,Scattered Clouds,200,2013-05-19 20:14:00
3:35 PM,73.4,60.8,65,29.60,10.0,South,16.1,21.9,N/A,,Scattered Clouds,190,2013-05-19 20:35:00
3:55 PM,73.4,60.8,65,29.61,10.0,SSW,13.8,23.0,N/A,,Scattered Clouds,200,2013-05-19 20:55:00
4:14 PM,73.4,60.8,65,29.61,10.0,SSW,11.5,16.1,N/A,,Scattered Clouds,210,2013-05-19 21:14:00
4:34 PM,73.4,60.8,65,29.61,10.0,SSW,11.5,-,N/A,,Scattered Clouds,200,2013-05-19 21:34:00
4:55 PM,73.4,60.8,65,29.60,10.0,South,12.7,-,N/A,,Clear,170,2013-05-19 21:55:00
5:15 PM,73.4,60.8,65,29.59,10.0,SSE,9.2,-,N/A,,Clear,160,2013-05-19 22:15:00
5:34 PM,73.4,60.8,65,29.59,10.0,South,9.2,-,N/A,,Clear,180,2013-05-19 22:34:00
5:54 PM,73.4,60.8,65,29.58,10.0,South,10.4,-,N/A,,Clear,170,2013-05-19 22:54:00
6:14 PM,73.4,60.8,65,29.57,10.0,SSE,8.1,-,N/A,,Clear,160,2013-05-19 23:14:00
6:35 PM,73.4,62.6,69,29.57,10.0,SSE,6.9,-,N/A,,Clear,160,2013-05-19 23:35:00
6:54 PM,71.6,62.6,73,29.57,10.0,SE,8.1,-,N/A,,Clear,140,2013-05-19 23:54:00
7:15 PM,71.6,62.6,73,29.57,10.0,SE,9.2,-,N/A,,Clear,130,2013-05-20 00:15:00
7:34 PM,69.8,62.6,78,29.56,10.0,SE,8.1,-,N/A,,Clear,130,2013-05-20 00:34:00
7:54 PM,69.8,62.6,78,29.56,10.0,East,10.4,-,N/A,,Clear,100,2013-05-20 00:54:00
8:15 PM,68.0,62.6,83,29.56,10.0,East,12.7,-,N/A,,Scattered Clouds,100,2013-05-20 01:15:00
8:34 PM,66.2,62.6,88,29.57,10.0,ESE,11.5,-,N/A,,Scattered Clouds,110,2013-05-20 01:34:00
8:54 PM,64.4,62.6,94,29.57,10.0,SE,10.4,-,N/A,,Overcast,130,2013-05-20 01:54:00
9:15 PM,64.4,62.6,94,29.59,10.0,SE,8.1,-,N/A,,Overcast,130,2013-05-20 02:15:00
9:35 PM,64.4,60.8,88,29.59,10.0,East,9.2,-,N/A,,Overcast,100,2013-05-20 02:35:00
9:54 PM,64.4,60.8,88,29.59,7.0,East,6.9,-,N/A,,Overcast,90,2013-05-20 02:54:00
10:15 PM,62.6,60.8,94,29.59,10.0,East,5.8,-,N/A,Rain,Light Rain,90,2013-05-20 03:15:00
10:35 PM,62.6,60.8,94,29.58,4.0,ESE,6.9,-,N/A,,Scattered Clouds,110,2013-05-20 03:35:00
11:14 PM,62.6,60.8,94,29.57,7.0,ESE,4.6,-,N/A,,Overcast,110,2013-05-20 04:14:00
11:34 PM,62.6,60.8,94,29.56,7.0,ENE,4.6,-,N/A,,Overcast,70,2013-05-20 04:34:00
11:54 PM,62.6,60.8,94,29.56,10.0,ENE,3.5,-,N/A,,Overcast,70,2013-05-20 04:54:00